Location: *
(34.0486°S, 61.7880°E)
Time: 16:00:24
(UTC+00:00)

Shenzhou-11 Module - Pass Details

Date: 01 April 2020
Orbit: 275 x 294 km, 42.8° (Epoch: 26 May)

Event Time Altitude Azimuth Distance (km) Brightness Sun altitude
Rises 14:12:08 0° 342° (NNW) 2,001 6.0 -5.9°
Reaches altitude 10° 14:15:08 10° 21° (NNE) 1,172 4.3 -6.6°
Maximum altitude 14:16:00 11° 40° (NE) 1,112 4.0 -6.7°
Drops below altitude 10° 14:16:51 10° 59° (ENE) 1,170 4.0 -6.9°
Enters shadow 14:17:27 - 71° (ENE) 1,273 4.1 -7.0°
